EOK324 RKTU-RJAA

Flight info

Callsign EOK324
Flight time 1h 41m
Altitude 37000
Route UPTIL1 GUKDO Y685 SAPRA DCT SUGNO MADUL Y45 KMC Y515 ZUWAI Y517 ESKAS Y303 ENTAK/N0465F360 Y30 SWAMP
Aircraft A320/M-SDE3FGHIRWY/LB1

Departure

Time 2026-05-04 04:47
Airport Cheongju International Airport/Cheongju Air Base (K-59/G-513) (RKTU)

Arrival

Time 2026-05-04 06:28
Airport Narita International Airport (RJAA)
Time Latitude Longitude Altitude Speed Heading
2026-05-04 04:39 36.72170 127.49774 189 ft 0 kts 322°
2026-05-04 04:41 36.72160 127.49784 189 ft 2 kts 322°
2026-05-04 04:41 36.72142 127.49802 198 ft 4 kts 322°
2026-05-04 04:42 36.72121 127.49817 196 ft 4 kts 354°
2026-05-04 04:42 36.72097 127.49812 200 ft 4 kts 36°
2026-05-04 04:42 36.72086 127.49801 203 ft 1 kts 52°
2026-05-04 04:44 36.72088 127.49804 203 ft 2 kts 52°
2026-05-04 04:44 36.72120 127.49855 199 ft 15 kts 52°
2026-05-04 04:44 36.72213 127.50000 189 ft 26 kts 51°
2026-05-04 04:44 36.72319 127.50174 199 ft 23 kts 63°
2026-05-04 04:45 36.72244 127.50304 188 ft 18 kts 135°
2026-05-04 04:45 36.72281 127.50441 183 ft 21 kts 50°
2026-05-04 04:45 36.72384 127.50599 181 ft 25 kts 51°
2026-05-04 04:47 36.71358 127.49309 225 ft 164 kts 236°
2026-05-04 04:47 36.70675 127.48225 967 ft 156 kts 237°
2026-05-04 04:47 36.70012 127.47150 1720 ft 156 kts 239°
2026-05-04 04:47 36.69339 127.46049 2358 ft 168 kts 239°
2026-05-04 04:48 36.68588 127.44806 2771 ft 191 kts 238°
2026-05-04 04:49 36.65736 127.38258 5088 ft 242 kts 282°
2026-05-04 04:49 36.66417 127.36351 5921 ft 245 kts 310°
2026-05-04 04:49 36.67817 127.35147 6799 ft 251 kts 340°
2026-05-04 04:49 36.69580 127.35072 7672 ft 264 kts 12°
2026-05-04 04:50 36.71226 127.36183 8585 ft 274 kts 30°
2026-05-04 04:50 36.72786 127.37570 9528 ft 277 kts 30°
2026-05-04 04:50 36.74329 127.38972 10322 ft 283 kts 31°
2026-05-04 04:50 36.75983 127.40475 10595 ft 306 kts 31°
2026-05-04 04:51 36.77776 127.42092 10809 ft 330 kts 31°
2026-05-04 04:51 36.79693 127.43820 11104 ft 348 kts 31°
2026-05-04 04:51 36.81671 127.45611 11714 ft 354 kts 31°
2026-05-04 04:51 36.83679 127.47427 12392 ft 358 kts 31°
2026-05-04 04:52 36.85705 127.49257 13112 ft 361 kts 30°
2026-05-04 04:52 36.87723 127.51083 13810 ft 364 kts 30°
2026-05-04 04:52 36.89783 127.52946 14420 ft 368 kts 30°
2026-05-04 04:52 36.91868 127.54826 15022 ft 371 kts 30°
2026-05-04 04:53 36.93975 127.56719 15624 ft 375 kts 30°
2026-05-04 04:53 36.96097 127.58635 16219 ft 379 kts 31°
2026-05-04 04:53 36.97978 127.61024 16798 ft 398 kts 50°
2026-05-04 04:53 36.99065 127.64286 17384 ft 420 kts 73°
2026-05-04 04:54 36.99096 127.67948 17963 ft 439 kts 96°
2026-05-04 04:54 36.98035 127.71577 18498 ft 452 kts 115°
2026-05-04 04:54 36.96414 127.74966 18990 ft 457 kts 122°
2026-05-04 04:54 36.94551 127.78207 19478 ft 461 kts 126°
2026-05-04 04:55 36.92562 127.81376 19967 ft 465 kts 128°
2026-05-04 04:55 36.90544 127.84549 20435 ft 468 kts 127°
2026-05-04 04:55 36.88550 127.87782 20855 ft 471 kts 126°
2026-05-04 04:55 36.86601 127.91094 21282 ft 475 kts 125°
2026-05-04 04:56 36.84717 127.94427 21712 ft 478 kts 124°
2026-05-04 04:56 36.82821 127.97855 22127 ft 481 kts 124°
2026-05-04 04:56 36.80920 128.01310 22523 ft 485 kts 124°
2026-05-04 04:56 36.78995 128.04781 22927 ft 488 kts 125°
2026-05-04 04:57 36.77044 128.08255 23273 ft 491 kts 126°
2026-05-04 04:57 36.75068 128.11742 23582 ft 494 kts 126°
2026-05-04 04:57 36.73071 128.15247 23860 ft 497 kts 127°
2026-05-04 04:57 36.71057 128.18770 24198 ft 500 kts 127°
2026-05-04 04:58 36.69035 128.22305 24496 ft 502 kts 127°
2026-05-04 04:58 36.67028 128.25815 24786 ft 505 kts 127°
2026-05-04 04:58 36.64987 128.29391 25061 ft 508 kts 128°
2026-05-04 04:58 36.62935 128.32988 25344 ft 511 kts 128°
2026-05-04 04:59 36.60881 128.36610 25632 ft 513 kts 128°
2026-05-04 04:59 36.58830 128.40262 25915 ft 516 kts 128°
2026-05-04 04:59 36.56776 128.43940 26174 ft 519 kts 128°
2026-05-04 04:59 36.54713 128.47637 26431 ft 522 kts 128°
2026-05-04 05:00 36.52638 128.51347 26681 ft 524 kts 129°
2026-05-04 05:00 36.50575 128.55020 26918 ft 526 kts 129°
2026-05-04 05:00 36.46343 128.62494 27378 ft 531 kts 130°
2026-05-04 05:01 36.44211 128.66249 27587 ft 533 kts 130°
2026-05-04 05:01 36.42072 128.70025 27794 ft 536 kts 130°
2026-05-04 05:01 36.39933 128.73807 28125 ft 535 kts 130°
2026-05-04 05:01 36.37793 128.77584 28417 ft 535 kts 131°
2026-05-04 05:02 36.35653 128.81350 28746 ft 534 kts 131°
2026-05-04 05:02 36.33544 128.85056 29091 ft 533 kts 132°
2026-05-04 05:02 36.31408 128.88809 29428 ft 532 kts 132°
2026-05-04 05:02 36.29273 128.92559 29740 ft 532 kts 133°
2026-05-04 05:03 36.27140 128.96303 30052 ft 531 kts 133°
2026-05-04 05:03 36.25007 129.00039 30323 ft 531 kts 134°
2026-05-04 05:04 36.18606 129.11222 31129 ft 531 kts 135°
2026-05-04 05:04 36.16496 129.14894 31397 ft 531 kts 135°
2026-05-04 05:04 36.14359 129.18616 31650 ft 530 kts 136°
2026-05-04 05:06 35.99623 129.44801 33475 ft 545 kts 128°
2026-05-04 05:06 35.98083 129.49131 33760 ft 558 kts 119°
2026-05-04 05:06 35.97007 129.53787 34026 ft 570 kts 109°
2026-05-04 05:07 35.96386 129.58651 34258 ft 575 kts 105°
2026-05-04 05:07 35.95830 129.63533 34501 ft 574 kts 105°
2026-05-04 05:07 35.95262 129.68409 34746 ft 573 kts 105°
2026-05-04 05:09 35.90594 130.06964 36482 ft 566 kts 105°
2026-05-04 05:09 35.90005 130.11764 36676 ft 565 kts 105°
2026-05-04 05:10 35.89413 130.16549 36870 ft 564 kts 105°
2026-05-04 05:10 35.88825 130.21271 36952 ft 565 kts 105°
2026-05-04 05:10 35.87625 130.30857 36954 ft 566 kts 105°
2026-05-04 05:11 35.86431 130.40450 36956 ft 566 kts 105°
2026-05-04 05:11 35.85227 130.50029 36961 ft 565 kts 105°
2026-05-04 05:12 35.84023 130.59536 36958 ft 565 kts 105°
2026-05-04 05:12 35.82822 130.69117 36960 ft 567 kts 103°
2026-05-04 05:13 35.82740 130.78909 36958 ft 576 kts 89°
2026-05-04 05:13 35.83307 130.88763 36959 ft 577 kts 90°
2026-05-04 05:14 35.83846 130.98556 36961 ft 576 kts 90°
2026-05-04 05:14 35.84363 131.08418 36963 ft 577 kts 90°
2026-05-04 05:15 35.84878 131.18286 36959 ft 577 kts 90°
2026-05-04 05:15 35.85405 131.28157 36964 ft 578 kts 90°
2026-05-04 05:16 35.85910 131.37972 36963 ft 578 kts 91°
2026-05-04 05:16 35.86399 131.47855 36963 ft 577 kts 91°
2026-05-04 05:17 35.86887 131.57740 36963 ft 577 kts 91°
2026-05-04 05:17 35.87369 131.67622 36960 ft 578 kts 91°
2026-05-04 05:18 35.87844 131.77508 36958 ft 578 kts 91°
2026-05-04 05:18 35.88308 131.87328 36955 ft 577 kts 91°
2026-05-04 05:19 35.88756 131.97210 36952 ft 577 kts 92°
2026-05-04 05:19 35.89201 132.07093 36953 ft 577 kts 92°
2026-05-04 05:20 35.89647 132.16907 36950 ft 577 kts 92°
2026-05-04 05:20 35.90091 132.26791 36949 ft 577 kts 92°
2026-05-04 05:21 35.90512 132.36674 36937 ft 577 kts 92°
2026-05-04 05:21 35.90922 132.46550 36930 ft 577 kts 92°
2026-05-04 05:22 35.91328 132.56362 36929 ft 577 kts 93°
2026-05-04 05:22 35.91733 132.66242 36922 ft 577 kts 93°
2026-05-04 05:23 35.92124 132.76118 36926 ft 577 kts 93°
2026-05-04 05:23 35.92504 132.85995 36929 ft 576 kts 93°
2026-05-04 05:24 35.92878 132.95811 36926 ft 576 kts 93°
2026-05-04 05:24 35.93242 133.05686 36920 ft 576 kts 94°
2026-05-04 05:25 35.93600 133.15560 36922 ft 576 kts 94°
2026-05-04 05:25 35.93950 133.25432 36914 ft 576 kts 94°
2026-05-04 05:26 35.94289 133.35236 36909 ft 576 kts 94°
2026-05-04 05:26 35.94621 133.45109 36906 ft 576 kts 94°
2026-05-04 05:28 35.95882 133.84553 36891 ft 576 kts 95°
2026-05-04 05:29 35.96183 133.94439 36887 ft 577 kts 95°
2026-05-04 05:29 35.96479 134.04333 36876 ft 577 kts 95°
2026-05-04 05:31 35.97524 134.43860 36874 ft 577 kts 96°
2026-05-04 05:32 35.97769 134.53699 36874 ft 577 kts 96°
2026-05-04 05:33 35.98117 134.68561 36869 ft 577 kts 96°
2026-05-04 05:33 35.98879 134.78494 36865 ft 589 kts 82°
2026-05-04 05:34 36.01230 134.88229 36858 ft 593 kts 75°
2026-05-04 05:34 36.03741 134.97864 36855 ft 593 kts 75°
2026-05-04 05:35 36.06244 135.07582 36849 ft 594 kts 76°
2026-05-04 05:35 36.08750 135.17311 36850 ft 594 kts 75°
2026-05-04 05:36 36.11258 135.27053 36846 ft 595 kts 76°
2026-05-04 05:36 36.13741 135.36745 36843 ft 595 kts 76°
2026-05-04 05:37 36.16228 135.46528 36842 ft 596 kts 76°
2026-05-04 05:37 36.18711 135.56321 36840 ft 597 kts 76°
2026-05-04 05:38 36.22412 135.70969 36841 ft 597 kts 76°
2026-05-04 05:38 36.24878 135.80795 36836 ft 597 kts 76°
2026-05-04 05:39 36.28566 135.95545 36836 ft 598 kts 76°
2026-05-04 05:40 36.32223 136.10261 36843 ft 598 kts 76°
2026-05-04 05:40 36.34667 136.20127 36848 ft 599 kts 76°
2026-05-04 05:41 36.37104 136.30004 36850 ft 599 kts 76°
2026-05-04 05:41 36.39651 136.39840 36852 ft 600 kts 69°
2026-05-04 05:42 36.43399 136.49103 36852 ft 601 kts 61°
2026-05-04 05:42 36.47331 136.58179 36841 ft 601 kts 61°
2026-05-04 05:43 36.51265 136.67333 36833 ft 600 kts 61°
2026-05-04 05:45 36.64487 137.04942 36807 ft 590 kts 85°
2026-05-04 05:47 36.70216 137.45183 36790 ft 591 kts 85°
2026-05-04 05:47 36.71620 137.55271 36782 ft 590 kts 85°
2026-05-04 05:48 36.73018 137.65237 36721 ft 584 kts 85°
2026-05-04 05:48 36.74403 137.75228 36743 ft 586 kts 85°
2026-05-04 05:49 36.75765 137.85225 36728 ft 584 kts 86°
2026-05-04 05:49 36.77116 137.95193 36726 ft 582 kts 86°
2026-05-04 05:51 36.82533 138.34813 36683 ft 578 kts 86°
2026-05-04 05:52 36.83868 138.44640 36689 ft 579 kts 86°
2026-05-04 05:52 36.85191 138.54548 36688 ft 578 kts 86°
2026-05-04 05:54 36.90343 138.94097 36681 ft 579 kts 87°
2026-05-04 05:55 36.91621 139.04040 36679 ft 580 kts 87°
2026-05-04 05:55 36.92904 139.13992 36671 ft 580 kts 87°
2026-05-04 05:56 36.94196 139.23872 36670 ft 580 kts 87°
2026-05-04 05:56 36.95487 139.33821 36657 ft 579 kts 88°
2026-05-04 05:57 36.96766 139.43762 36643 ft 579 kts 88°
2026-05-04 05:57 36.98025 139.53702 36636 ft 578 kts 88°
2026-05-04 05:58 36.99270 139.63557 36635 ft 577 kts 88°
2026-05-04 05:58 37.00514 139.73478 36624 ft 577 kts 88°
2026-05-04 05:59 37.01744 139.83402 36613 ft 577 kts 88°
2026-05-04 05:59 37.02978 139.93322 36593 ft 577 kts 88°
2026-05-04 06:00 37.04198 140.03181 36593 ft 577 kts 88°
2026-05-04 06:00 37.05411 140.13096 36593 ft 576 kts 88°
2026-05-04 06:01 37.06612 140.23006 36614 ft 575 kts 88°
2026-05-04 06:03 37.08996 140.57294 36626 ft 543 kts 112°
2026-05-04 06:03 37.08053 140.61803 36622 ft 529 kts 121°
2026-05-04 06:05 36.92494 140.78448 36596 ft 375 kts 197°
2026-05-04 06:05 36.87656 140.76911 36595 ft 349 kts 214°
2026-05-04 06:06 36.83451 140.73992 36594 ft 348 kts 214°
2026-05-04 06:06 36.78936 140.71708 36597 ft 357 kts 207°
2026-05-04 06:07 36.74170 140.69880 36600 ft 358 kts 207°
2026-05-04 06:07 36.69402 140.68046 36538 ft 359 kts 207°
2026-05-04 06:07 36.67022 140.67129 36269 ft 358 kts 207°
2026-05-04 06:08 36.64647 140.66214 36012 ft 358 kts 207°
2026-05-04 06:08 36.62268 140.65298 35754 ft 359 kts 207°
2026-05-04 06:08 36.59880 140.64381 35505 ft 360 kts 207°
2026-05-04 06:08 36.57516 140.63476 35259 ft 360 kts 206°
2026-05-04 06:09 36.55122 140.62557 35014 ft 361 kts 206°
2026-05-04 06:09 36.52722 140.61637 34777 ft 361 kts 206°
2026-05-04 06:11 36.35789 140.55227 33043 ft 367 kts 205°
2026-05-04 06:11 36.33343 140.54302 32776 ft 368 kts 205°
2026-05-04 06:13 36.15356 140.50312 27970 ft 424 kts 175°
2026-05-04 06:14 36.01571 140.68246 20867 ft 484 kts 149°
2026-05-04 06:14 35.99035 140.70851 20088 ft 465 kts 155°
2026-05-04 06:15 35.96439 140.73024 19299 ft 449 kts 160°
2026-05-04 06:15 35.93745 140.74853 18511 ft 435 kts 165°
2026-05-04 06:15 35.91017 140.76338 17745 ft 423 kts 170°
2026-05-04 06:15 35.88276 140.77502 16894 ft 411 kts 174°
2026-05-04 06:16 35.85540 140.78235 16079 ft 390 kts 187°
2026-05-04 06:16 35.82979 140.77753 15328 ft 362 kts 208°
2026-05-04 06:16 35.80924 140.76123 14574 ft 348 kts 227°
2026-05-04 06:16 35.79599 140.73726 13825 ft 342 kts 245°
2026-05-04 06:17 35.79062 140.70911 12550 ft 341 kts 262°
2026-05-04 06:17 35.79188 140.68027 11729 ft 333 kts 276°
2026-05-04 06:17 35.79981 140.65439 11508 ft 316 kts 290°
2026-05-04 06:17 35.81316 140.63368 11382 ft 306 kts 307°
2026-05-04 06:18 35.83086 140.61955 11148 ft 306 kts 324°
2026-05-04 06:18 35.85105 140.61096 10617 ft 304 kts 328°
2026-05-04 06:18 35.87039 140.60184 10090 ft 292 kts 324°
2026-05-04 06:20 35.96729 140.49387 8208 ft 264 kts 294°
2026-05-04 06:20 35.97569 140.47380 7771 ft 263 kts 290°
2026-05-04 06:21 35.99452 140.39127 6456 ft 223 kts 273°
2026-05-04 06:21 35.99562 140.37274 6229 ft 209 kts 269°
2026-05-04 06:22 35.99565 140.35499 5811 ft 207 kts 266°
2026-05-04 06:22 35.99473 140.33706 5259 ft 211 kts 262°
2026-05-04 06:25 35.87105 140.33049 1587 ft 138 kts 162°
2026-05-04 06:25 35.86283 140.33641 1398 ft 136 kts 163°
2026-05-04 06:26 35.85477 140.34224 1223 ft 132 kts 162°
2026-05-04 06:26 35.84698 140.34789 1056 ft 128 kts 165°
2026-05-04 06:26 35.83909 140.35357 897 ft 133 kts 162°
2026-05-04 06:26 35.83131 140.35921 745 ft 129 kts 158°
2026-05-04 06:27 35.80081 140.38127 153 ft 117 kts 157°
2026-05-04 06:28 35.79528 140.38523 144 ft 56 kts 148°
2026-05-04 06:28 35.79231 140.38742 145 ft 46 kts 150°
2026-05-04 06:28 35.78964 140.38911 143 ft 41 kts 161°
2026-05-04 06:28 35.78706 140.38955 144 ft 33 kts 174°
2026-05-04 06:29 35.78522 140.39033 144 ft 28 kts 137°
2026-05-04 06:29 35.78353 140.39143 143 ft 27 kts 165°
2026-05-04 06:29 35.78175 140.39195 143 ft 25 kts 175°
2026-05-04 06:29 35.78087 140.39092 144 ft 18 kts 241°
2026-05-04 06:30 35.77990 140.39054 143 ft 17 kts 153°
2026-05-04 06:30 35.77884 140.39073 144 ft 16 kts 218°
2026-05-04 06:30 35.77826 140.38957 144 ft 16 kts 240°
2026-05-04 06:30 35.77776 140.38835 144 ft 16 kts 262°
2026-05-04 06:31 35.77851 140.38740 143 ft 16 kts 330°
2026-05-04 06:31 35.77896 140.38671 143 ft 9 kts 256°
2026-05-04 06:31 35.77875 140.38622 143 ft 1 kts 239°
2026-05-04 06:31 35.77873 140.38619 143 ft 0 kts 238°